DW8945 Weather Reports


time (UTC)temp
F
wind
direction
speed
knots
gust
knots
rain 1hr
in
rain 24hr
in
rain mn
in
humidity
%
barometer
mb
20260507122350 51 317 2.6 5.2 0.00 0.00 0.00 92 1007.1
20260507121854 51 319 0.9 5.2 0.00 0.00 0.00 93 1007.0
20260507121354 50 319 2.6 5.2 0.00 0.00 0.00 92 1007.1
20260507120856 50 319 1.7 5.2 0.00 0.00 0.00 92 1007.1
20260507120354 50 319 1.7 5.2 0.00 0.00 0.00 93 1007.0
20260507115904 50 311 1.7 4.3 0.00 0.00 0.00 93 1006.9
20260507115349 50 311 0.9 4.3 0.00 0.00 0.00 93 1006.9
20260507114852 50 311 0.9 3.5 0.00 0.00 0.00 93 1007.0
20260507114355 50 311 0.0 3.5 0.00 0.00 0.00 93 1007.0
20260507113900 50 311 0.9 5.2 0.00 0.00 0.00 93 1007.1
20260507113359 50 311 1.7 5.2 0.00 0.00 0.00 93 1006.9
20260507112903 50 313 0.0 1.7 0.00 0.00 0.00 93 1006.9
20260507112424 50 313 0.0 2.6 0.00 0.00 0.00 93 1006.8
20260507111905 50 313 0.9 2.6 0.00 0.00 0.00 93 1006.9
20260507111349 49 313 0.0 1.7 0.00 0.00 0.00 93 1006.9
20260507110852 50 313 0.0 1.7 0.00 0.00 0.00 92 1006.9
20260507110351 50 313 0.0 1.7 0.00 0.00 0.00 92 1006.6
20260507105904 50 313 0.0 0.9 0.00 0.00 0.00 92 1006.5
20260507105350 50 313 0.0 0.9 0.00 0.00 0.00 92 1006.5
20260507104851 49 313 0.0 0.0 0.00 0.00 0.00 92 1006.6
20260507104357 49 313 0.0 2.6 0.00 0.00 0.00 92 1006.7
20260507103901 49 313 0.9 2.6 0.00 0.00 0.00 92 1006.9
20260507103404 49 314 0.0 1.7 0.00 0.00 0.00 92 1006.9
20260507102848 49 314 0.9 1.7 0.00 0.00 0.00 92 1007.0
20260507102354 49 314 0.0 1.7 0.00 0.00 0.00 92 1006.8
20260507101918 49 314 0.0 0.9 0.00 0.00 0.00 92 1006.5
20260507101359 49 314 0.0 0.9 0.00 0.00 0.00 91 1006.4
20260507100844 49 314 0.0 1.7 0.00 0.00 0.00 91 1006.4
20260507100406 49 314 0.0 4.3 0.00 0.00 0.00 91 1006.3
20260507095915 49 314 1.7 4.3 0.00 0.00 0.00 91 1006.4
20260507095357 49 314 1.7 3.5 0.00 0.00 0.00 91 1006.1
20260507094900 49 315 0.0 5.2 0.00 0.00 0.00 91 1006.1
20260507094405 49 313 1.7 4.3 0.00 0.00 0.00 91 1006.1
20260507093901 49 311 0.9 5.2 0.00 0.00 0.00 91 1006.1
20260507093345 50 312 1.7 7.0 0.00 0.00 0.00 91 1006.1
20260507092852 50 300 3.5 7.0 0.00 0.00 0.00 90 1006.1
20260507092355 50 324 1.7 5.2 0.00 0.00 0.00 91 1006.0
20260507091857 50 323 2.6 5.2 0.00 0.00 0.00 90 1006.0
20260507091403 50 317 1.7 4.3 0.00 0.00 0.00 90 1006.2
20260507090848 50 318 1.7 4.3 0.00 0.00 0.00 90 1006.2
20260507090345 51 316 0.9 4.3 0.00 0.00 0.00 90 1006.4
20260507085858 51 319 0.9 4.3 0.00 0.00 0.00 90 1006.4
20260507085402 51 317 1.7 5.2 0.00 0.00 0.00 90 1006.4
20260507084905 51 315 2.6 5.2 0.00 0.00 0.00 89 1006.3
20260507084349 51 316 1.7 5.2 0.00 0.00 0.00 89 1006.4
20260507083855 51 316 2.6 6.1 0.00 0.00 0.00 89 1006.4
20260507083355 52 318 1.7 6.1 0.00 0.00 0.00 89 1006.1
20260507082857 52 294 1.7 5.2 0.00 0.00 0.00 89 1006.0
20260507082401 52 291 1.7 5.2 0.00 0.00 0.00 88 1006.1
20260507081843 52 287 0.0 5.2 0.00 0.00 0.00 88 1006.0
20260507081350 52 276 0.0 6.1 0.00 0.00 0.00 87 1005.8
20260507080855 53 299 1.7 6.1 0.00 0.00 0.00 87 1005.9
20260507080353 53 325 1.7 7.0 0.00 0.00 0.00 86 1006.0
20260507075846 53 331 2.6 7.0 0.00 0.00 0.00 86 1006.2
20260507075352 53 315 2.6 7.8 0.00 0.00 0.00 86 1005.9
20260507074856 54 317 2.6 7.8 0.00 0.00 0.00 85 1006.0
20260507074402 54 340 1.7 7.0 0.00 0.00 0.00 85 1005.7
20260507073846 55 346 2.6 7.8 0.00 0.00 0.00 85 1005.8
20260507073349 55 301 3.5 7.8 0.00 0.00 0.00 84 1005.8
20260507072857 55 287 2.6 6.1 0.00 0.00 0.00 84 1005.7
20260507072345 55 298 2.6 6.1 0.00 0.00 0.00 84 1005.6
20260507071850 55 332 1.7 7.8 0.00 0.00 0.00 84 1005.2
20260507071418 55 331 1.7 7.8 0.00 0.00 0.00 84 1004.9
20260507070842 56 328 0.9 6.1 0.00 0.00 0.00 85 1004.9
20260507070356 56 329 1.7 6.1 0.00 0.00 0.00 85 1005.0
20260507065906 56 323 1.7 4.3 0.00 0.00 0.00 85 1005.2
20260507065353 56 321 0.9 3.5 0.00 0.00 0.00 85 1005.0
20260507064900 56 321 0.9 4.3 0.00 0.00 0.00 85 1005.0
20260507064345 56 320 0.9 4.3 0.00 0.00 0.00 85 1005.2
20260507063854 56 320 0.9 6.1 0.00 0.00 0.00 85 1005.2
20260507063359 56 325 2.6 7.0 0.00 0.00 0.00 85 1005.3
20260507062846 56 326 2.6 7.8 0.00 0.00 0.00 86 1005.3
20260507062413 57 331 2.6 7.8 0.00 0.00 0.00 86 1005.3
20260507061856 57 325 2.6 7.8 0.00 0.00 0.00 86 1005.1
20260507061342 57 329 1.7 5.2 0.00 0.00 0.00 86 1004.9
20260507060850 57 333 0.9 4.3 0.00 0.00 0.00 87 1004.8
20260507060351 57 329 0.9 4.3 0.00 0.00 0.00 87 1004.9
20260507055922 57 331 0.9 5.2 0.00 0.00 0.00 87 1005.2
20260507055350 57 332 1.7 5.2 0.00 0.00 0.00 87 1005.3
20260507054855 58 293 0.9 6.1 0.00 0.00 0.00 87 1005.2
20260507054341 58 288 2.6 8.7 0.00 0.00 0.00 87 1005.2
20260507053848 58 311 2.6 8.7 0.00 0.00 0.00 88 1005.5
20260507053349 58 302 0.0 4.3 0.00 0.00 0.00 89 1005.6
20260507052856 58 300 0.9 5.2 0.00 0.00 0.00 89 1005.4
20260507052344 58 300 1.7 5.2 0.00 0.00 0.00 89 1005.4
20260507051847 58 301 0.9 5.2 0.00 0.00 0.00 89 1005.3
20260507051351 58 295 2.6 5.2 0.00 0.00 0.00 89 1005.1
20260507050859 59 290 1.7 6.1 0.00 0.00 0.00 90 1004.9
20260507050342 59 283 0.9 7.8 0.00 0.00 0.00 90 1005.0
20260507045855 59 282 2.6 8.7 0.00 0.00 0.00 90 1005.1
20260507045342 59 312 1.7 8.7 0.00 0.00 0.00 91 1005.1
20260507044847 59 312 1.7 5.2 0.00 0.00 0.00 91 1005.2
20260507044353 59 317 0.9 8.7 0.00 0.00 0.00 92 1005.2
20260507043859 59 338 1.7 10.4 0.00 0.00 0.00 92 1005.3
20260507043404 59 303 4.3 10.4 0.00 0.00 0.00 92 1005.0
20260507042910 60 329 1.7 9.6 0.00 0.00 0.00 93 1004.9
20260507042414 60 305 2.6 5.2 0.00 0.00 0.00 93 1005.0
20260507041856 60 307 0.9 4.3 0.00 0.00 0.00 93 1005.0
20260507041421 60 312 0.0 4.3 0.00 0.00 0.00 93 1005.0
20260507040847 60 313 2.6 6.1 0.00 0.00 0.00 93 1005.0
20260507040422 60 305 0.9 4.3 0.00 0.00 0.00 94 1005.2
20260507035846 60 305 0.0 4.3 0.00 0.00 0.00 94 1005.3
20260507035354 60 304 0.9 4.3 0.00 0.00 0.00 94 1005.4
20260507034858 60 311 1.7 5.2 0.00 0.00 0.00 93 1005.4
20260507034401 60 310 1.7 5.2 0.00 0.00 0.00 93 1005.2
20260507033849 60 321 2.6 5.2 0.00 0.00 0.00 93 1005.1
20260507033353 60 285 0.9 5.2 0.00 0.00 0.00 93 1004.9
20260507032920 60 277 0.9 7.0 0.00 0.00 0.00 93 1004.8
20260507032347 60 272 1.7 7.8 0.00 0.00 0.00 93 1005.0
20260507031912 60 277 2.6 7.8 0.00 0.00 0.00 93 1004.8
20260507031358 60 279 2.6 7.0 0.00 0.00 0.00 94 1004.7
20260507030904 60 262 2.6 7.0 0.00 0.00 0.00 93 1004.6
20260507030345 60 238 0.9 6.1 0.00 0.00 0.00 93 1004.6
20260507025856 60 275 1.7 6.1 0.00 0.00 0.00 93 1004.6
20260507025400 60 228 2.6 6.1 0.00 0.00 0.00 93 1004.6
20260507024901 60 305 1.7 6.1 0.00 0.00 0.00 93 1004.5
20260507024348 60 261 1.7 6.1 0.00 0.00 0.00 93 1004.5
20260507023855 60 245 2.6 6.1 0.00 0.00 0.00 93 1004.6
20260507023400 60 309 1.7 5.2 0.00 0.00 0.00 94 1004.8
20260507022848 60 331 0.9 5.2 0.00 0.00 0.00 94 1004.8
20260507022349 60 244 1.7 6.1 0.00 0.00 0.00 94 1004.6
20260507021849 59 250 2.6 6.1 0.00 0.00 0.00 94 1004.5
20260507021354 59 257 1.7 5.2 0.00 0.00 0.00 94 1004.6
20260507020921 59 272 0.9 6.1 0.00 0.00 0.00 94 1004.7
20260507020355 59 236 2.6 6.1 0.00 0.00 0.00 94 1004.6
20260507015844 59 285 0.9 6.1 0.00 0.00 0.00 94 1004.7
20260507015410 59 254 1.7 3.5 0.00 0.00 0.00 94 1004.5
20260507014853 59 259 1.7 4.3 0.00 0.00 0.00 94 1004.6
20260507014357 59 275 1.7 4.3 0.00 0.00 0.00 94 1004.6
20260507013901 59 286 0.9 6.1 0.00 0.00 0.00 94 1004.6
20260507013403 59 214 2.6 6.1 0.00 0.00 0.00 93 1004.7
20260507012849 59 247 0.9 5.2 0.00 0.00 0.00 93 1004.7
20260507012354 59 202 3.5 6.1 0.00 0.00 0.00 93 1004.7
20260507011921 59 233 1.7 7.0 0.00 0.00 0.00 93 1004.9
20260507011345 59 227 0.9 7.0 0.00 0.00 0.00 93 1005.1
20260507010852 59 248 0.9 5.2 0.00 0.00 0.00 93 1005.0
20260507010351 59 297 1.7 6.1 0.00 0.00 0.00 93 1005.1
20260507005841 59 238 2.6 6.1 0.00 0.00 0.00 93 1005.1
20260507005347 59 224 1.7 6.1 0.00 0.00 0.00 93 1005.2
20260507004912 59 221 1.7 6.1 0.00 0.00 0.00 93 1005.2
20260507004354 59 232 2.6 6.1 0.00 0.00 0.00 93 1005.1
20260507003857 59 227 1.7 6.1 0.00 0.00 0.00 93 1005.1
20260507003358 59 227 1.7 7.0 0.00 0.00 0.00 93 1005.0
20260507002902 59 224 0.9 7.0 0.00 0.00 0.00 93 1005.0
20260507002347 59 227 2.6 7.0 0.00 0.00 0.00 93 1005.1
20260507001850 59 229 1.7 7.0 0.00 0.00 0.00 93 1005.0
20260507001355 59 209 0.9 6.1 0.00 0.00 0.00 93 1004.9
20260507000900 59 241 1.7 6.1 0.00 0.00 0.00 93 1004.8
20260507000343 59 231 2.6 6.1 0.00 0.00 0.00 93 1004.7
20260506235855 59 235 2.6 6.1 0.00 0.00 0.00 93 1004.6
20260506235401 59 250 2.6 6.1 0.00 0.00 0.00 92 1004.7
20260506234842 59 229 3.5 6.1 0.00 0.00 0.00 92 1004.7
20260506234410 60 220 3.5 6.1 0.00 0.00 0.00 92 1004.7
20260506233852 60 233 2.6 7.0 0.00 0.00 0.00 92 1004.8
20260506233353 60 304 1.7 7.0 0.00 0.00 0.00 92 1004.6
20260506232856 60 217 1.7 7.0 0.00 0.00 0.00 92 1004.6
20260506232343 60 245 1.7 7.0 0.00 0.00 0.00 92 1004.5
20260506231849 60 264 1.7 7.8 0.00 0.00 0.00 92 1004.5
20260506231356 60 234 3.5 7.8 0.00 0.00 0.00 92 1004.6
20260506230843 60 234 3.5 7.8 0.00 0.00 0.00 92 1004.6
20260506230344 60 237 1.7 6.1 0.00 0.00 0.00 92 1004.6
20260506225854 60 326 1.7 6.1 0.00 0.00 0.00 92 1004.6
20260506225342 60 257 1.7 6.1 0.00 0.00 0.00 92 1004.7
20260506224846 61 235 2.6 7.0 0.00 0.00 0.00 92 1004.6
20260506224351 61 186 1.7 7.0 0.00 0.00 0.00 92 1004.7
20260506223856 61 240 1.7 6.1 0.00 0.00 0.00 92 1004.6
20260506223421 61 246 2.6 10.4 0.00 0.00 0.00 92 1004.8
20260506222905 61 235 2.6 10.4 0.00 0.00 0.00 91 1004.8
20260506222351 61 221 3.5 7.0 0.00 0.00 0.00 92 1004.9
20260506221854 61 232 2.6 7.8 0.00 0.00 0.00 91 1005.0
20260506221400 61 238 3.5 9.6 0.00 0.00 0.00 91 1005.0
20260506220846 61 218 5.2 8.7 0.00 0.00 0.00 91 1005.1
20260506220404 61 236 1.7 8.7 0.00 0.00 0.00 91 1005.1
20260506215853 61 229 5.2 8.7 0.00 0.00 0.00 90 1005.1
20260506215400 61 234 1.7 9.6 0.00 0.00 0.00 90 1005.1
20260506214904 61 214 2.6 8.7 0.00 0.00 0.00 90 1005.3
20260506214349 62 230 4.3 8.7 0.00 0.00 0.00 89 1005.3
20260506213854 62 321 5.2 8.7 0.00 0.00 0.00 89 1005.4
20260506213355 62 223 2.6 7.8 0.00 0.00 0.00 89 1005.4
20260506212858 62 260 3.5 8.7 0.00 0.00 0.00 89 1005.6
20260506212345 62 230 5.2 12.2 0.00 0.00 0.00 89 1005.4
20260506211909 62 229 6.1 12.2 0.00 0.00 0.00 89 1005.4
20260506211352 62 251 4.3 8.7 0.00 0.00 0.00 89 1005.4
20260506210856 62 232 4.3 8.7 0.00 0.00 0.00 89 1005.4
20260506210349 62 273 2.6 8.7 0.00 0.00 0.00 89 1005.4
20260506205841 62 232 4.3 10.4 0.00 0.00 0.00 88 1005.5
20260506205342 62 220 3.5 10.4 0.00 0.00 0.00 88 1005.5
20260506204845 62 240 4.3 8.7 0.00 0.00 0.00 88 1005.6
20260506204352 62 252 1.7 10.4 0.00 0.00 0.00 88 1005.6
20260506203858 62 227 2.6 10.4 0.00 0.00 0.00 87 1005.7
20260506203344 62 309 2.6 8.7 0.00 0.00 0.00 87 1005.8
20260506202851 63 227 3.5 7.8 0.00 0.00 0.00 86 1005.7
20260506202357 63 245 2.6 7.8 0.00 0.00 0.00 86 1005.7
20260506201842 63 220 2.6 7.0 0.00 0.00 0.00 86 1005.7
20260506201348 63 229 2.6 6.1 0.00 0.00 0.00 85 1005.6
20260506200856 63 238 2.6 6.1 0.00 0.00 0.00 85 1005.6
20260506200357 64 248 1.7 7.8 0.00 0.00 0.00 85 1005.5
20260506195846 64 234 3.5 8.7 0.00 0.00 0.00 84 1005.5
20260506195413 64 217 2.6 7.8 0.00 0.00 0.00 83 1005.5
20260506194918 65 231 2.6 8.7 0.00 0.00 0.00 82 1005.6
20260506194342 65 236 2.6 8.7 0.00 0.00 0.00 81 1005.6
20260506193847 65 223 1.7 8.7 0.00 0.00 0.00 80 1005.8
20260506193352 66 240 1.7 8.7 0.00 0.00 0.00 79 1005.9
20260506192840 67 239 3.5 8.7 0.00 0.00 0.00 77 1005.6
20260506192347 67 186 2.6 8.7 0.00 0.00 0.00 75 1005.8
20260506191914 68 222 2.6 5.2 0.00 0.00 0.00 74 1005.7
20260506191417 68 222 1.7 6.1 0.00 0.00 0.00 72 1005.8
20260506190842 69 225 2.6 6.1 0.00 0.00 0.00 71 1005.7
20260506190339 69 225 2.6 7.0 0.00 0.00 0.00 70 1005.6
20260506185847 69 236 3.5 7.0 0.00 0.00 0.00 68 1005.7
20260506185353 69 216 2.6 8.7 0.00 0.00 0.00 68 1005.6
20260506184918 69 230 4.3 8.7 0.00 0.00 0.00 66 1005.7
20260506184401 70 218 5.2 10.4 0.00 0.00 0.00 66 1005.8
20260506183907 70 244 3.5 9.6 0.00 0.00 0.00 65 1005.8
20260506183350 71 220 3.5 9.6 0.00 0.00 0.00 64 1005.8
20260506182855 71 217 4.3 10.4 0.00 0.00 0.00 62 1005.9
20260506182358 71 229 5.2 12.2 0.00 0.00 0.00 61 1005.9
20260506181900 72 248 4.3 12.2 0.00 0.00 0.00 60 1005.9
20260506181344 72 62 3.5 12.2 0.00 0.00 0.00 59 1005.8
20260506180850 72 210 6.1 12.2 0.00 0.00 0.00 58 1005.9
20260506180350 73 235 3.5 13.9 0.00 0.00 0.00 58 1005.7
20260506175920 73 99 7.0 13.9 0.00 0.00 0.00 57 1005.8
20260506175423 73 230 6.1 13.0 0.00 0.00 0.00 58 1006.0
20260506174845 73 236 6.1 12.2 0.00 0.00 0.00 58 1006.0
20260506174349 74 227 4.3 11.3 0.00 0.00 0.00 58 1006.2
20260506173854 74 221 6.1 11.3 0.00 0.00 0.00 58 1006.1
20260506173355 73 217 4.3 12.2 0.00 0.00 0.00 59 1006.2
20260506172859 73 240 5.2 12.2 0.00 0.00 0.00 60 1006.3
20260506172401 73 248 4.3 9.6 0.00 0.00 0.00 60 1006.3
20260506171902 73 221 5.2 13.0 0.00 0.00 0.00 60 1006.4
20260506171347 73 240 6.1 13.0 0.00 0.00 0.00 60 1006.3
20260506170852 72 226 5.2 12.2 0.00 0.00 0.00 61 1006.2
20260506170348 72 243 5.2 9.6 0.00 0.00 0.00 61 1006.3
20260506165916 72 227 4.3 9.6 0.00 0.00 0.00 61 1006.4
20260506165401 72 223 2.6 13.0 0.00 0.00 0.00 62 1006.4
20260506164903 72 237 5.2 17.4 0.00 0.00 0.00 61 1006.6
20260506164346 72 219 5.2 17.4 0.00 0.00 0.00 61 1006.7
20260506163911 73 241 5.2 11.3 0.00 0.00 0.00 61 1006.6
20260506163352 73 231 5.2 11.3 0.00 0.00 0.00 61 1006.7
20260506162855 72 219 3.5 8.7 0.00 0.00 0.00 61 1006.7
20260506162419 72 229 2.6 14.8 0.00 0.00 0.00 61 1006.7
20260506161856 72 163 5.2 9.6 0.00 0.00 0.00 61 1006.9
20260506161401 72 231 5.2 9.6 0.00 0.00 0.00 62 1007.0
20260506160905 72 239 5.2 11.3 0.00 0.00 0.00 62 1007.2
20260506160358 72 234 6.1 12.2 0.00 0.00 0.00 61 1007.2
20260506155858 72 234 6.1 13.9 0.00 0.00 0.00 61 1007.3
20260506155423 72 234 5.2 12.2 0.00 0.00 0.00 61 1007.4
20260506154907 72 229 5.2 13.9 0.00 0.00 0.00 60 1007.4
20260506154350 72 234 6.1 13.9 0.00 0.00 0.00 60 1007.6
20260506153916 73 228 5.2 13.0 0.00 0.00 0.00 60 1007.7
20260506153359 73 228 3.5 11.3 0.00 0.00 0.00 60 1007.7
20260506152846 73 252 2.6 12.2 0.00 0.00 0.00 60 1007.8
20260506152351 73 240 5.2 12.2 0.00 0.00 0.00 60 1007.8
20260506151854 73 240 3.5 12.2 0.00 0.00 0.00 60 1007.8
20260506151401 73 298 3.5 15.6 0.00 0.00 0.00 61 1007.8
20260506150848 72 325 6.1 15.6 0.00 0.00 0.00 61 1007.9
20260506150348 72 240 7.0 14.8 0.00 0.00 0.00 61 1008.0
20260506145859 72 277 4.3 11.3 0.00 0.00 0.00 62 1008.0
20260506145346 72 231 3.5 9.6 0.00 0.00 0.00 63 1008.0
20260506144849 71 238 4.3 9.6 0.00 0.00 0.00 63 1007.9
20260506144356 71 236 4.3 10.4 0.00 0.00 0.00 64 1007.8
20260506143923 71 223 4.3 10.4 0.00 0.00 0.00 64 1007.9
20260506143345 71 227 5.2 9.6 0.00 0.00 0.00 64 1007.9
20260506142851 71 206 4.3 11.3 0.00 0.00 0.00 65 1007.9
20260506142355 71 269 5.2 11.3 0.00 0.00 0.00 65 1007.9
20260506141845 70 241 3.5 9.6 0.00 0.00 0.00 66 1007.8
20260506141352 70 300 2.6 9.6 0.00 0.00 0.00 67 1007.8
20260506140857 70 237 2.6 12.2 0.00 0.00 0.00 68 1007.8
20260506140343 69 232 7.0 12.2 0.00 0.00 0.00 68 1008.0
20260506135910 69 250 4.3 7.8 0.00 0.00 0.00 70 1007.9
20260506135356 68 268 3.5 8.7 0.00 0.00 0.00 71 1008.1
20260506134919 68 215 3.5 6.1 0.00 0.00 0.00 72 1008.1
20260506134402 67 224 1.7 11.3 0.00 0.00 0.00 72 1008.0
20260506133847 67 246 2.6 11.3 0.00 0.00 0.00 73 1008.3
20260506133351 67 240 2.6 9.6 0.00 0.00 0.00 73 1008.4
20260506132900 67 242 5.2 9.6 0.00 0.00 0.00 73 1008.6
20260506132405 66 238 0.9 4.3 0.00 0.00 0.00 74 1008.6
20260506131849 66 286 2.6 7.0 0.00 0.00 0.00 75 1008.7
20260506131356 66 231 2.6 7.8 0.00 0.00 0.00 75 1008.6
20260506130901 66 234 4.3 7.8 0.00 0.00 0.00 75 1008.6
20260506130401 65 232 3.5 6.1 0.00 0.00 0.00 76 1008.5
20260506125852 65 211 2.6 7.8 0.00 0.00 0.00 76 1008.5
20260506125400 65 229 3.5 9.6 0.00 0.00 0.00 77 1008.6
20260506124844 65 226 2.6 9.6 0.00 0.00 0.00 77 1008.7
20260506124352 65 227 3.5 8.7 0.00 0.00 0.00 77 1008.7
20260506123858 64 234 5.2 8.7 0.00 0.00 0.00 78 1008.7
20260506123346 64 256 3.5 8.7 0.00 0.00 0.00 78 1008.9
20260506122853 64 242 3.5 6.1 0.00 0.00 0.00 80 1008.8